COSMOS 2545 (760)

Last updated on Mon Sep 21 2026 00:03:22 GMT+0000 (Coordinated Universal Time)

1 45358U 20018A 26263.01477116 -.00000022 00000+0 00000+0 0 9995 2 45358 64.2932 309.0810 0011945 236.7664 123.1908 2.13102750 50682
UTC large
Height (km)
Speed (km/s)
/
Latitude / Longitude
Inclination (degrees)
Orbital Period (minutes)
Azimuth
Elevation
Range (km)
Doppler Factor

Next 0 passes for location: London (51.5072 / 0.1276)

No passes found over London.
COSMOS 2545 (760)